| time (UTC) | temp F | wind direction | speed knots | gust knots | rain 1hr in | rain 24hr in | rain mn in | humidity % | barometer mb |
| 20260503045609 | 54 | 149 | 0.0 | 0.0 | 0.00 | 0.67 | 0.00 | 81 | 1013.0 |
| 20260503044609 | 54 | 161 | 0.0 | 0.0 | 0.00 | 0.67 | 0.00 | 81 | 1013.1 |
| 20260503043609 | 53 | 153 | 0.0 | 0.0 | 0.00 | 0.67 | 0.00 | 81 | 1013.1 |
| 20260503042609 | 53 | 135 | 0.0 | 0.0 | 0.00 | 0.67 | 0.00 | 81 | 1013.2 |
| 20260503041608 | 53 | 112 | 0.0 | 0.0 | 0.00 | 0.67 | 0.00 | 80 | 1013.1 |
| 20260503041242 | 53 | 112 | 0.0 | 0.0 | 0.00 | 0.67 | 0.00 | 80 | 1013.1 |
| 20260503040240 | 52 | 136 | 0.0 | 1.7 | 0.00 | 0.67 | 0.00 | 83 | 1013.4 |
| 20260503035241 | 53 | 187 | 0.0 | 0.0 | 0.00 | 0.67 | 0.00 | 84 | 1013.5 |
| 20260503034241 | 51 | 125 | 0.0 | 1.7 | 0.00 | 0.67 | 0.00 | 83 | 1013.8 |
| 20260503033241 | 52 | 142 | 0.9 | 2.6 | 0.00 | 0.67 | 0.00 | 84 | 1013.8 |
| 20260503032241 | 53 | 128 | 0.0 | 0.0 | 0.00 | 0.67 | 0.00 | 82 | 1013.6 |
| 20260503031241 | 53 | 128 | 0.0 | 0.9 | 0.00 | 0.67 | 0.00 | 81 | 1013.5 |
| 20260503030241 | 53 | 128 | 0.0 | 0.0 | 0.00 | 0.67 | 0.00 | 82 | 1013.5 |
| 20260503025312 | 53 | 129 | 0.0 | 0.0 | 0.00 | 0.67 | 0.00 | 82 | 1013.5 |
| 20260503024312 | 53 | 127 | 0.0 | 0.0 | 0.00 | 0.67 | 0.00 | 82 | 1013.6 |
| 20260503023314 | 53 | 125 | 0.0 | 0.0 | 0.00 | 0.67 | 0.00 | 81 | 1013.6 |
| 20260503022313 | 53 | 127 | 0.0 | 0.0 | 0.00 | 0.67 | 0.00 | 81 | 1013.6 |
| 20260503021313 | 53 | 127 | 0.0 | 0.9 | 0.00 | 0.67 | 0.00 | 82 | 1013.8 |
| 20260503020313 | 53 | 134 | 0.0 | 0.0 | 0.00 | 0.67 | 0.00 | 82 | 1013.8 |
| 20260503015312 | 53 | 134 | 0.0 | 0.0 | 0.00 | 0.67 | 0.00 | 82 | 1013.8 |
| 20260503014312 | 53 | 134 | 0.0 | 0.0 | 0.00 | 0.67 | 0.00 | 82 | 1013.9 |
| 20260503013312 | 53 | 134 | 0.0 | 0.0 | 0.00 | 0.67 | 0.00 | 82 | 1014.1 |
| 20260503012311 | 53 | 132 | 0.0 | 0.0 | 0.00 | 0.67 | 0.00 | 82 | 1014.2 |
| 20260503011311 | 53 | 134 | 0.0 | 0.0 | 0.00 | 0.67 | 0.00 | 82 | 1014.3 |
| 20260503010313 | 53 | 134 | 0.0 | 0.0 | 0.00 | 0.67 | 0.00 | 82 | 1014.4 |
| 20260503005312 | 53 | 133 | 0.0 | 0.9 | 0.00 | 0.67 | 0.00 | 82 | 1014.6 |
| 20260503004312 | 53 | 132 | 0.0 | 0.0 | 0.00 | 0.67 | 0.00 | 80 | 1014.5 |
| 20260503003312 | 53 | 132 | 0.0 | 0.0 | 0.00 | 0.67 | 0.00 | 80 | 1014.8 |
| 20260503002311 | 53 | 133 | 0.0 | 0.9 | 0.00 | 0.67 | 0.00 | 80 | 1014.7 |
| 20260503001311 | 54 | 132 | 0.0 | 0.0 | 0.00 | 0.67 | 0.00 | 77 | 1014.7 |
| 20260503000311 | 54 | 134 | 0.0 | 0.0 | 0.00 | 0.67 | 0.00 | 78 | 1014.9 |
| 20260502235312 | 54 | 132 | 0.0 | 0.0 | 0.00 | 0.67 | 0.00 | 79 | 1015.0 |
| 20260502234312 | 54 | 134 | 0.0 | 0.0 | 0.00 | 0.67 | 0.00 | 80 | 1015.0 |
| 20260502233311 | 53 | 134 | 0.0 | 0.0 | 0.00 | 0.67 | 0.00 | 79 | 1014.9 |
| 20260502232312 | 54 | 132 | 0.0 | 0.0 | 0.00 | 0.67 | 0.00 | 79 | 1014.9 |
| 20260502231312 | 54 | 134 | 0.0 | 0.0 | 0.00 | 0.67 | 0.00 | 79 | 1015.0 |
| 20260502230312 | 54 | 132 | 0.0 | 0.0 | 0.00 | 0.67 | 0.00 | 79 | 1015.1 |
| 20260502225311 | 53 | 134 | 0.0 | 0.0 | 0.00 | 0.67 | 0.00 | 80 | 1015.2 |
| 20260502224311 | 55 | 134 | 0.0 | 0.0 | 0.00 | 0.67 | 0.00 | 78 | 1014.8 |
| 20260502223311 | 55 | 132 | 0.0 | 0.0 | 0.00 | 0.67 | 0.00 | 78 | 1014.8 |
| 20260502222312 | 55 | 132 | 0.0 | 0.0 | 0.00 | 0.67 | 0.00 | 79 | 1014.7 |
| 20260502221312 | 55 | 134 | 0.0 | 0.0 | 0.00 | 0.67 | 0.00 | 79 | 1014.8 |
| 20260502220312 | 54 | 134 | 0.0 | 0.0 | 0.00 | 0.67 | 0.67 | 79 | 1015.0 |
| 20260502210312 | 54 | 253 | 0.0 | 0.0 | 0.00 | 0.67 | 0.67 | 80 | 1015.2 |
| 20260502205312 | 54 | 253 | 0.0 | 0.0 | 0.00 | 0.67 | 0.67 | 80 | 1015.2 |
| 20260502204312 | 53 | 253 | 0.0 | 1.7 | 0.00 | 0.67 | 0.67 | 81 | 1015.3 |
| 20260502203312 | 53 | 264 | 0.0 | 0.0 | 0.00 | 0.67 | 0.67 | 80 | 1014.9 |
| 20260502202311 | 53 | 266 | 0.0 | 0.0 | 0.00 | 0.67 | 0.67 | 78 | 1014.7 |
| 20260502201311 | 54 | 265 | 0.0 | 0.0 | 0.00 | 0.67 | 0.67 | 80 | 1014.4 |
| 20260502200311 | 54 | 264 | 0.0 | 0.0 | 0.00 | 0.67 | 0.67 | 80 | 1014.4 |
| 20260502195312 | 54 | 265 | 0.0 | 0.0 | 0.00 | 0.67 | 0.67 | 80 | 1014.4 |
| 20260502194311 | 53 | 265 | 0.0 | 1.7 | 0.00 | 0.67 | 0.67 | 83 | 1014.6 |
| 20260502193311 | 52 | 267 | 0.9 | 2.6 | 0.00 | 0.67 | 0.67 | 83 | 1014.8 |
| 20260502192310 | 53 | 230 | 0.0 | 0.0 | 0.02 | 0.67 | 0.67 | 83 | 1014.5 |
| 20260502191310 | 53 | 227 | 0.0 | 0.0 | 0.02 | 0.67 | 0.67 | 84 | 1014.3 |
| 20260502190310 | 53 | 226 | 0.9 | 2.6 | 0.02 | 0.67 | 0.67 | 85 | 1014.1 |
| 20260502185311 | 53 | 219 | 0.9 | 1.7 | 0.02 | 0.67 | 0.67 | 84 | 1013.9 |
| 20260502184310 | 54 | 207 | 0.0 | 0.9 | 0.02 | 0.67 | 0.67 | 85 | 1013.7 |
| 20260502183310 | 52 | 204 | 0.9 | 2.6 | 0.02 | 0.67 | 0.67 | 86 | 1014.0 |
| 20260502182310 | 51 | 232 | 3.5 | 6.1 | 0.00 | 0.65 | 0.65 | 86 | 1014.3 |
| 20260502181312 | 53 | 152 | 1.7 | 4.3 | 0.00 | 0.65 | 0.65 | 82 | 1014.5 |
| 20260502180311 | 55 | 220 | 0.0 | 1.7 | 0.00 | 0.65 | 0.65 | 78 | 1014.2 |
| 20260502164045 | 55 | 154 | 2.6 | 4.3 | 0.00 | 0.63 | 0.63 | 78 | 1014.7 |
| 20260502163045 | 53 | 229 | 3.5 | 7.0 | 0.10 | 0.63 | 0.63 | 82 | 1014.8 |
| 20260502162044 | 50 | 86 | 3.5 | 6.1 | 0.14 | 0.63 | 0.63 | 86 | 1015.0 |
| 20260502161044 | 51 | 217 | 1.7 | 3.5 | 0.14 | 0.63 | 0.63 | 87 | 1015.3 |
| 20260502152045 | 51 | 101 | 7.0 | 8.7 | 0.04 | 0.20 | 0.53 | 89 | 1016.3 |
| 20260502151044 | 53 | 90 | 1.7 | 3.5 | 0.00 | 0.49 | 0.49 | 85 | 1015.8 |
| 20260502122822 | 52 | 216 | 1.7 | 3.5 | 0.08 | 0.43 | 0.43 | 87 | 1018.3 |
| 20260502121821 | 51 | 209 | 1.7 | 2.6 | 0.10 | 0.43 | 0.43 | 84 | 1017.6 |
| 20260502120821 | 52 | 184 | 0.9 | 3.5 | 0.12 | 0.43 | 0.43 | 84 | 1017.4 |
| 20260502115821 | 52 | 146 | 0.0 | 0.0 | 0.12 | 0.41 | 0.41 | 86 | 1018.3 |
| 20260502114823 | 51 | 116 | 0.9 | 1.7 | 0.12 | 0.16 | 0.41 | 87 | 1019.1 |
| 20260502113822 | 51 | 214 | 0.0 | 2.6 | 0.10 | 0.39 | 0.39 | 87 | 1019.5 |
| 20260502112822 | 51 | 209 | 0.9 | 2.6 | 0.08 | 0.37 | 0.37 | 88 | 1019.5 |
| 20260502111822 | 51 | 297 | 1.7 | 4.3 | 0.06 | 0.35 | 0.35 | 88 | 1019.4 |
| 20260502110821 | 51 | 234 | 0.9 | 2.6 | 0.06 | 0.31 | 0.31 | 88 | 1019.5 |
| 20260502105821 | 50 | 215 | 2.6 | 5.2 | 0.06 | 0.30 | 0.30 | 88 | 1019.9 |
| 20260502104823 | 52 | 217 | 0.0 | 0.9 | 0.08 | 0.30 | 0.30 | 85 | 1019.3 |
| 20260502103822 | 52 | 222 | 0.0 | 0.0 | 0.10 | 0.30 | 0.30 | 84 | 1018.9 |
| 20260502102822 | 53 | 223 | 0.0 | 0.0 | 0.28 | 0.30 | 0.30 | 83 | 1018.6 |
| 20260502101822 | 54 | 223 | 0.0 | 0.0 | 0.30 | 0.12 | 0.30 | 86 | 1018.7 |
| 20260502100821 | 50 | 222 | 0.0 | 1.7 | 0.30 | 0.30 | 0.30 | 90 | 1019.3 |
| 20260502090559 | 55 | 159 | 1.7 | 4.3 | 0.00 | 0.00 | 0.00 | 77 | 1018.6 |
| 20260502070558 | 55 | 218 | 0.0 | 0.9 | 0.00 | 0.00 | 0.00 | 77 | 1018.8 |
| 20260502065559 | 55 | 337 | 0.0 | 0.9 | 0.00 | 0.00 | 0.00 | 78 | 1018.7 |
| 20260502064559 | 55 | 359 | 0.0 | 0.0 | 0.00 | 0.00 | 0.00 | 77 | 1018.8 |
| 20260502063558 | 54 | 359 | 0.0 | 1.7 | 0.00 | 0.00 | 0.00 | 77 | 1018.9 |
| 20260502062558 | 55 | 14 | 0.0 | 1.7 | 0.00 | 0.00 | 0.00 | 76 | 1018.7 |
| 20260502061600 | 55 | 281 | 0.0 | 0.0 | 0.00 | 0.00 | 0.00 | 77 | 1018.7 |
| 20260502060557 | 55 | 334 | 0.0 | 0.9 | 0.00 | 0.00 | 0.00 | 77 | 1018.8 |
| 20260502055557 | 55 | 285 | 0.0 | 0.9 | 0.00 | 0.00 | 0.00 | 77 | 1018.8 |
| 20260502054559 | 55 | 281 | 0.0 | 0.9 | 0.00 | 0.00 | 0.00 | 77 | 1018.7 |
| 20260502053558 | 55 | 272 | 0.0 | 2.6 | 0.00 | 0.00 | 0.00 | 77 | 1018.7 |
| 20260502052558 | 55 | 60 | 0.0 | 0.0 | 0.00 | 0.00 | 0.00 | 77 | 1018.8 |
| 20260502051457 | 55 | 62 | 0.0 | 0.0 | 0.00 | 0.00 | 0.00 | 77 | 1018.7 |
| 20260502050457 | 55 | 62 | 0.0 | 0.0 | 0.00 | 0.00 | 0.00 | 77 | 1018.7 |